| time (UTC) | temp F | wind direction | speed MPH | gust MPH | rain 1hr in | rain 24hr in | rain mn in | humidity % | barometer mb |
| 20260905133559 | 79 | 0 | 0.0 | 0.0 | 0.00 | 0.78 | 0.07 | 89 | 1015.6 |
| 20260905133105 | 78 | 0 | 0.0 | 0.0 | 0.00 | 0.78 | 0.07 | 89 | 1015.8 |
| 20260905132557 | 78 | 0 | 0.0 | 0.0 | 0.00 | 0.78 | 0.07 | 89 | 1015.8 |
| 20260905132057 | 78 | 0 | 0.0 | 0.0 | 0.00 | 0.78 | 0.07 | 89 | 1015.9 |
| 20260905131606 | 78 | 0 | 0.0 | 0.0 | 0.00 | 0.78 | 0.07 | 89 | 1016.0 |
| 20260905131058 | 78 | 0 | 0.0 | 0.0 | 0.00 | 0.78 | 0.07 | 89 | 1016.0 |
| 20260905130601 | 78 | 0 | 0.0 | 0.0 | 0.00 | 0.78 | 0.07 | 89 | 1016.0 |
| 20260905130106 | 78 | 0 | 0.0 | 0.0 | 0.01 | 0.78 | 0.07 | 88 | 1016.1 |
| 20260905125600 | 78 | 0 | 0.0 | 0.0 | 0.07 | 0.78 | 0.07 | 88 | 1015.8 |
| 20260905125058 | 78 | 0 | 0.0 | 0.0 | 0.07 | 0.78 | 0.07 | 88 | 1015.9 |
| 20260905124601 | 78 | 0 | 0.0 | 0.0 | 0.07 | 0.78 | 0.07 | 88 | 1015.9 |
| 20260905124059 | 78 | 0 | 0.0 | 2.0 | 0.07 | 0.78 | 0.07 | 88 | 1016.0 |
| 20260905123558 | 78 | 0 | 0.0 | 2.0 | 0.07 | 0.78 | 0.07 | 88 | 1016.1 |
| 20260905123109 | 78 | 0 | 0.0 | 2.0 | 0.07 | 0.78 | 0.07 | 88 | 1016.0 |
| 20260905122558 | 78 | 0 | 0.0 | 3.0 | 0.07 | 0.78 | 0.07 | 88 | 1015.9 |
| 20260905122057 | 78 | 0 | 0.0 | 3.0 | 0.07 | 0.78 | 0.07 | 88 | 1015.9 |
| 20260905121607 | 78 | 250 | 0.0 | 3.0 | 0.07 | 0.78 | 0.07 | 88 | 1016.0 |
| 20260905121058 | 78 | 226 | 0.0 | 5.0 | 0.07 | 0.78 | 0.07 | 88 | 1015.9 |
| 20260905120557 | 78 | 0 | 1.0 | 5.0 | 0.07 | 0.78 | 0.07 | 88 | 1015.8 |
| 20260905120111 | 78 | 0 | 0.0 | 0.0 | 0.06 | 0.77 | 0.06 | 88 | 1015.6 |
| 20260905115559 | 78 | 0 | 0.0 | 0.0 | 0.00 | 0.71 | 0.00 | 88 | 1015.5 |
| 20260905115057 | 79 | 0 | 0.0 | 0.0 | 0.00 | 0.71 | 0.00 | 88 | 1015.3 |
| 20260905114610 | 79 | 0 | 0.0 | 0.0 | 0.00 | 0.71 | 0.00 | 88 | 1015.4 |
| 20260905114057 | 79 | 0 | 0.0 | 3.0 | 0.00 | 0.71 | 0.00 | 88 | 1015.4 |
| 20260905113556 | 78 | 0 | 0.0 | 3.0 | 0.00 | 0.71 | 0.00 | 88 | 1015.4 |
| 20260905113101 | 78 | 0 | 0.0 | 0.0 | 0.00 | 0.71 | 0.00 | 88 | 1015.4 |
| 20260905112558 | 78 | 0 | 0.0 | 0.0 | 0.00 | 0.71 | 0.00 | 88 | 1015.1 |
| 20260905112100 | 78 | 0 | 0.0 | 0.0 | 0.00 | 0.71 | 0.00 | 88 | 1015.1 |
| 20260905111628 | 78 | 0 | 0.0 | 0.0 | 0.00 | 0.71 | 0.00 | 88 | 1015.1 |
| 20260905111057 | 78 | 0 | 0.0 | 0.0 | 0.00 | 0.71 | 0.00 | 88 | 1015.0 |
| 20260905110557 | 78 | 0 | 0.0 | 0.0 | 0.00 | 0.71 | 0.00 | 88 | 1014.9 |
| 20260905110113 | 78 | 0 | 0.0 | 0.0 | 0.00 | 0.71 | 0.00 | 88 | 1014.8 |
| 20260905105557 | 78 | 0 | 0.0 | 0.0 | 0.00 | 0.71 | 0.00 | 88 | 1014.9 |
| 20260905105057 | 78 | 0 | 0.0 | 0.0 | 0.00 | 0.71 | 0.00 | 88 | 1014.9 |
| 20260905104619 | 78 | 0 | 0.0 | 0.0 | 0.00 | 0.71 | 0.00 | 88 | 1014.9 |
| 20260905104103 | 78 | 0 | 0.0 | 0.0 | 0.00 | 0.71 | 0.00 | 88 | 1014.8 |
| 20260905103556 | 78 | 0 | 0.0 | 0.0 | 0.00 | 0.71 | 0.00 | 88 | 1014.7 |
| 20260905103101 | 78 | 0 | 0.0 | 0.0 | 0.00 | 0.71 | 0.00 | 88 | 1014.6 |
| 20260905102559 | 78 | 0 | 0.0 | 0.0 | 0.00 | 0.71 | 0.00 | 88 | 1014.6 |
| 20260905102059 | 78 | 0 | 0.0 | 0.0 | 0.00 | 0.71 | 0.00 | 88 | 1014.6 |
| 20260905101601 | 78 | 0 | 0.0 | 0.0 | 0.00 | 0.71 | 0.00 | 88 | 1014.5 |
| 20260905101059 | 78 | 0 | 0.0 | 0.0 | 0.00 | 0.71 | 0.00 | 87 | 1014.5 |
| 20260905100557 | 78 | 0 | 0.0 | 0.0 | 0.00 | 0.71 | 0.00 | 87 | 1014.5 |
| 20260905100108 | 78 | 0 | 0.0 | 0.0 | 0.00 | 0.71 | 0.00 | 87 | 1014.5 |
| 20260905095558 | 78 | 0 | 0.0 | 0.0 | 0.00 | 0.71 | 0.00 | 87 | 1014.3 |
| 20260905095057 | 78 | 0 | 0.0 | 0.0 | 0.00 | 0.71 | 0.00 | 87 | 1014.4 |
| 20260905094718 | 78 | 0 | 0.0 | 0.0 | 0.00 | 0.71 | 0.00 | 87 | 1014.3 |
| 20260905094103 | 78 | 0 | 0.0 | 0.0 | 0.00 | 0.71 | 0.00 | 87 | 1014.3 |
| 20260905093558 | 78 | 0 | 0.0 | 0.0 | 0.00 | 0.71 | 0.00 | 87 | 1014.2 |
| 20260905093131 | 79 | 0 | 0.0 | 0.0 | 0.00 | 0.71 | 0.00 | 87 | 1014.1 |
| 20260905092557 | 79 | 0 | 0.0 | 0.0 | 0.00 | 0.71 | 0.00 | 87 | 1014.1 |
| 20260905092101 | 79 | 0 | 0.0 | 0.0 | 0.00 | 0.71 | 0.00 | 87 | 1014.1 |
| 20260905091607 | 79 | 0 | 0.0 | 0.0 | 0.00 | 0.71 | 0.00 | 87 | 1014.1 |
| 20260905091104 | 79 | 0 | 0.0 | 0.0 | 0.00 | 0.71 | 0.00 | 87 | 1014.2 |
| 20260905090601 | 79 | 0 | 0.0 | 0.0 | 0.00 | 0.71 | 0.00 | 87 | 1014.2 |
| 20260905090108 | 79 | 0 | 0.0 | 0.0 | 0.00 | 0.71 | 0.00 | 87 | 1014.1 |
| 20260905085601 | 79 | 0 | 0.0 | 0.0 | 0.00 | 0.71 | 0.00 | 87 | 1014.1 |
| 20260905085059 | 79 | 0 | 0.0 | 0.0 | 0.00 | 0.71 | 0.00 | 87 | 1014.2 |
| 20260905084609 | 79 | 0 | 0.0 | 0.0 | 0.00 | 0.71 | 0.00 | 87 | 1014.3 |
| 20260905084101 | 79 | 0 | 0.0 | 0.0 | 0.00 | 0.71 | 0.00 | 87 | 1014.2 |
| 20260905083558 | 79 | 0 | 0.0 | 0.0 | 0.00 | 0.71 | 0.00 | 87 | 1014.2 |
| 20260905083106 | 79 | 0 | 0.0 | 0.0 | 0.00 | 0.71 | 0.00 | 87 | 1014.3 |
| 20260905082601 | 79 | 0 | 0.0 | 0.0 | 0.00 | 0.71 | 0.00 | 87 | 1014.3 |
| 20260905082101 | 79 | 0 | 0.0 | 0.0 | 0.00 | 0.71 | 0.00 | 87 | 1014.2 |
| 20260905081612 | 79 | 0 | 0.0 | 0.0 | 0.00 | 0.71 | 0.00 | 87 | 1014.2 |
| 20260905081101 | 79 | 0 | 0.0 | 0.0 | 0.00 | 0.71 | 0.00 | 87 | 1014.3 |
| 20260905080600 | 79 | 0 | 0.0 | 0.0 | 0.00 | 0.71 | 0.00 | 87 | 1014.3 |
| 20260905080123 | 79 | 0 | 0.0 | 0.0 | 0.00 | 0.71 | 0.00 | 87 | 1014.4 |
| 20260905075604 | 79 | 0 | 0.0 | 0.0 | 0.00 | 0.71 | 0.00 | 87 | 1014.4 |
| 20260905075100 | 79 | 0 | 0.0 | 0.0 | 0.00 | 0.71 | 0.00 | 87 | 1014.4 |
| 20260905074608 | 79 | 0 | 0.0 | 0.0 | 0.00 | 0.71 | 0.00 | 87 | 1014.5 |
| 20260905074100 | 79 | 0 | 0.0 | 0.0 | 0.00 | 0.71 | 0.00 | 87 | 1014.4 |
| 20260905073601 | 79 | 0 | 0.0 | 0.0 | 0.00 | 0.71 | 0.00 | 87 | 1014.4 |
| 20260905073112 | 80 | 0 | 0.0 | 0.0 | 0.00 | 0.71 | 0.00 | 87 | 1014.5 |
| 20260905072600 | 80 | 0 | 0.0 | 0.0 | 0.00 | 0.71 | 0.00 | 87 | 1014.4 |
| 20260905072057 | 80 | 0 | 0.0 | 0.0 | 0.00 | 0.71 | 0.00 | 87 | 1014.4 |
| 20260905071604 | 80 | 0 | 0.0 | 0.0 | 0.00 | 0.71 | 0.00 | 87 | 1014.4 |
| 20260905071101 | 80 | 0 | 0.0 | 0.0 | 0.00 | 0.71 | 0.00 | 87 | 1014.5 |
| 20260905070558 | 80 | 0 | 0.0 | 0.0 | 0.00 | 0.71 | 0.00 | 87 | 1014.5 |
| 20260905070104 | 80 | 0 | 0.0 | 0.0 | 0.00 | 0.71 | 0.00 | 87 | 1014.6 |
| 20260905065602 | 80 | 0 | 0.0 | 0.0 | 0.00 | 0.71 | 0.00 | 87 | 1014.7 |
| 20260905065103 | 80 | 0 | 0.0 | 0.0 | 0.00 | 0.71 | 0.00 | 87 | 1014.6 |
| 20260905064612 | 80 | 0 | 0.0 | 0.0 | 0.00 | 0.71 | 0.00 | 87 | 1014.8 |
| 20260905064100 | 80 | 0 | 0.0 | 0.0 | 0.00 | 0.71 | 0.00 | 87 | 1014.9 |
| 20260905063601 | 80 | 0 | 0.0 | 0.0 | 0.00 | 0.71 | 0.00 | 88 | 1014.9 |
| 20260905063106 | 80 | 0 | 0.0 | 0.0 | 0.00 | 0.71 | 0.00 | 88 | 1015.0 |
| 20260905062558 | 80 | 0 | 0.0 | 0.0 | 0.00 | 0.71 | 0.00 | 88 | 1015.2 |
| 20260905062059 | 80 | 0 | 0.0 | 1.0 | 0.00 | 0.71 | 0.00 | 88 | 1015.2 |
| 20260905061607 | 80 | 0 | 0.0 | 2.0 | 0.00 | 0.71 | 0.00 | 88 | 1015.3 |
| 20260905061104 | 80 | 0 | 0.0 | 2.0 | 0.00 | 0.71 | 0.00 | 88 | 1015.4 |
| 20260905060557 | 80 | 111 | 0.0 | 1.0 | 0.00 | 0.71 | 0.00 | 88 | 1015.5 |
| 20260905060108 | 80 | 0 | 0.0 | 0.0 | 0.00 | 0.71 | 0.00 | 88 | 1015.4 |
| 20260905055557 | 80 | 0 | 0.0 | 0.0 | 0.00 | 0.71 | 0.00 | 88 | 1015.5 |
| 20260905055057 | 80 | 0 | 0.0 | 0.0 | 0.00 | 0.71 | 0.00 | 88 | 1015.5 |
| 20260905054608 | 80 | 0 | 0.0 | 0.0 | 0.00 | 0.71 | 0.00 | 88 | 1015.5 |
| 20260905054104 | 80 | 0 | 0.0 | 0.0 | 0.00 | 0.71 | 0.00 | 88 | 1015.6 |
| 20260905053600 | 80 | 0 | 0.0 | 0.0 | 0.00 | 0.71 | 0.00 | 88 | 1015.6 |
| 20260905053101 | 80 | 0 | 0.0 | 0.0 | 0.00 | 0.71 | 0.00 | 88 | 1015.7 |
| 20260905052558 | 80 | 0 | 0.0 | 0.0 | 0.00 | 0.71 | 0.00 | 88 | 1015.8 |
| 20260905052102 | 80 | 0 | 0.0 | 0.0 | 0.00 | 0.71 | 0.00 | 88 | 1015.7 |
| 20260905051611 | 79 | 0 | 0.0 | 0.0 | 0.00 | 0.71 | 0.00 | 88 | 1015.9 |
| 20260905051102 | 79 | 0 | 0.0 | 0.0 | 0.00 | 0.71 | 0.00 | 88 | 1015.9 |
| 20260905050557 | 79 | 0 | 0.0 | 0.0 | 0.00 | 0.71 | 0.00 | 88 | 1016.0 |
| 20260905050106 | 79 | 0 | 0.0 | 0.0 | 0.00 | 0.71 | 0.00 | 88 | 1015.9 |
| 20260905045558 | 79 | 0 | 0.0 | 0.0 | 0.00 | 0.71 | 0.00 | 88 | 1016.0 |
| 20260905045057 | 79 | 0 | 0.0 | 0.0 | 0.00 | 0.71 | 0.00 | 88 | 1016.0 |
| 20260905044601 | 79 | 0 | 0.0 | 0.0 | 0.00 | 0.71 | 0.00 | 87 | 1016.0 |
| 20260905044056 | 79 | 0 | 0.0 | 0.0 | 0.00 | 0.71 | 0.00 | 87 | 1015.9 |
| 20260905043556 | 79 | 0 | 0.0 | 0.0 | 0.00 | 0.71 | 0.00 | 87 | 1015.9 |
| 20260905043105 | 79 | 0 | 0.0 | 0.0 | 0.00 | 0.71 | 0.00 | 87 | 1015.9 |
| 20260905042558 | 79 | 0 | 0.0 | 0.0 | 0.00 | 0.71 | 0.00 | 87 | 1015.9 |
| 20260905042056 | 79 | 0 | 0.0 | 0.0 | 0.00 | 0.71 | 0.00 | 87 | 1015.9 |
| 20260905041610 | 79 | 0 | 0.0 | 0.0 | 0.00 | 0.71 | 0.00 | 87 | 1015.9 |
| 20260905041056 | 79 | 0 | 0.0 | 0.0 | 0.00 | 0.71 | 0.00 | 87 | 1015.9 |
| 20260905040559 | 79 | 0 | 0.0 | 0.0 | 0.00 | 0.71 | 0.00 | 87 | 1015.9 |
| 20260905040111 | 79 | 0 | 0.0 | 0.0 | 0.00 | 0.71 | 0.00 | 87 | 1016.0 |
| 20260905035556 | 80 | 0 | 0.0 | 0.0 | 0.00 | 0.71 | 0.71 | 87 | 1016.1 |
| 20260905035056 | 79 | 0 | 0.0 | 0.0 | 0.00 | 0.71 | 0.71 | 87 | 1016.1 |
| 20260905034607 | 79 | 0 | 0.0 | 0.0 | 0.00 | 0.71 | 0.71 | 87 | 1016.0 |
| 20260905034059 | 80 | 0 | 0.0 | 0.0 | 0.00 | 0.71 | 0.71 | 87 | 1016.0 |
| 20260905033558 | 80 | 0 | 0.0 | 0.0 | 0.00 | 0.71 | 0.71 | 87 | 1016.1 |
| 20260905033111 | 80 | 0 | 0.0 | 0.0 | 0.00 | 0.71 | 0.71 | 87 | 1016.3 |
| 20260905032558 | 80 | 0 | 0.0 | 0.0 | 0.00 | 0.71 | 0.71 | 87 | 1016.3 |
| 20260905032058 | 80 | 0 | 0.0 | 0.0 | 0.00 | 0.71 | 0.71 | 87 | 1016.4 |
| 20260905031621 | 80 | 0 | 0.0 | 0.0 | 0.00 | 0.71 | 0.71 | 86 | 1016.4 |
| 20260905031056 | 80 | 0 | 0.0 | 0.0 | 0.00 | 0.71 | 0.71 | 87 | 1016.3 |
| 20260905030556 | 80 | 0 | 0.0 | 0.0 | 0.00 | 0.71 | 0.71 | 86 | 1016.4 |
| 20260905030111 | 80 | 0 | 0.0 | 0.0 | 0.00 | 0.71 | 0.71 | 86 | 1016.5 |
| 20260905025556 | 80 | 0 | 0.0 | 0.0 | 0.00 | 0.71 | 0.71 | 86 | 1016.4 |
| 20260905025059 | 80 | 0 | 0.0 | 0.0 | 0.00 | 0.71 | 0.71 | 86 | 1016.3 |
| 20260905024613 | 80 | 0 | 0.0 | 0.0 | 0.00 | 0.71 | 0.71 | 86 | 1016.5 |
| 20260905024059 | 80 | 0 | 0.0 | 0.0 | 0.00 | 0.71 | 0.71 | 86 | 1016.6 |
| 20260905023557 | 80 | 0 | 0.0 | 0.0 | 0.00 | 0.71 | 0.71 | 86 | 1016.4 |
| 20260905023102 | 80 | 0 | 0.0 | 0.0 | 0.00 | 0.71 | 0.71 | 86 | 1016.5 |
| 20260905022558 | 80 | 0 | 0.0 | 0.0 | 0.00 | 0.71 | 0.71 | 86 | 1016.5 |
| 20260905022058 | 80 | 0 | 0.0 | 0.0 | 0.00 | 0.71 | 0.71 | 86 | 1016.5 |
| 20260905021613 | 80 | 0 | 0.0 | 0.0 | 0.00 | 0.71 | 0.71 | 86 | 1016.4 |
| 20260905021058 | 80 | 0 | 0.0 | 0.0 | 0.00 | 0.71 | 0.71 | 86 | 1016.4 |
| 20260905020558 | 80 | 0 | 0.0 | 0.0 | 0.00 | 0.71 | 0.71 | 86 | 1016.4 |
| 20260905020111 | 80 | 0 | 0.0 | 0.0 | 0.00 | 0.71 | 0.71 | 86 | 1016.4 |
| 20260905015557 | 80 | 0 | 0.0 | 0.0 | 0.00 | 0.71 | 0.71 | 86 | 1016.3 |
| 20260905015058 | 80 | 0 | 0.0 | 0.0 | 0.00 | 0.71 | 0.71 | 86 | 1016.3 |
| 20260905014602 | 80 | 0 | 0.0 | 0.0 | 0.00 | 0.71 | 0.71 | 85 | 1016.3 |
| 20260905014056 | 80 | 0 | 0.0 | 0.0 | 0.00 | 0.71 | 0.71 | 85 | 1016.3 |
| 20260905013601 | 80 | 0 | 0.0 | 0.0 | 0.00 | 0.71 | 0.71 | 85 | 1016.3 |
| 20260905013121 | 80 | 0 | 0.0 | 0.0 | 0.00 | 0.71 | 0.71 | 85 | 1016.3 |
| 20260905012556 | 80 | 0 | 0.0 | 0.0 | 0.00 | 0.71 | 0.71 | 85 | 1016.3 |
| 20260905012056 | 80 | 0 | 0.0 | 0.0 | 0.00 | 0.71 | 0.71 | 85 | 1016.2 |
| 20260905011613 | 80 | 0 | 0.0 | 0.0 | 0.00 | 0.71 | 0.71 | 85 | 1016.2 |
| 20260905011056 | 81 | 0 | 0.0 | 0.0 | 0.00 | 0.71 | 0.71 | 85 | 1016.0 |
| 20260905010558 | 81 | 0 | 0.0 | 0.0 | 0.00 | 0.71 | 0.71 | 85 | 1016.1 |
| 20260905010109 | 81 | 0 | 0.0 | 0.0 | 0.00 | 0.71 | 0.71 | 85 | 1016.0 |
| 20260905005557 | 81 | 0 | 0.0 | 0.0 | 0.00 | 0.71 | 0.71 | 85 | 1015.9 |
| 20260905005058 | 81 | 0 | 0.0 | 0.0 | 0.00 | 0.71 | 0.71 | 85 | 1015.9 |
| 20260905004602 | 81 | 0 | 0.0 | 0.0 | 0.00 | 0.71 | 0.71 | 85 | 1015.9 |
| 20260905004058 | 81 | 0 | 0.0 | 0.0 | 0.00 | 0.71 | 0.71 | 84 | 1015.7 |
| 20260905003558 | 81 | 0 | 0.0 | 0.0 | 0.00 | 0.71 | 0.71 | 84 | 1015.6 |
| 20260905003107 | 81 | 0 | 0.0 | 0.0 | 0.00 | 0.71 | 0.71 | 84 | 1015.6 |
| 20260905002556 | 81 | 0 | 0.0 | 0.0 | 0.00 | 0.71 | 0.71 | 84 | 1015.4 |
| 20260905002056 | 81 | 0 | 0.0 | 0.0 | 0.00 | 0.71 | 0.71 | 84 | 1015.3 |
| 20260905001605 | 81 | 0 | 0.0 | 0.0 | 0.00 | 0.71 | 0.71 | 84 | 1015.1 |
| 20260905001058 | 81 | 0 | 0.0 | 0.0 | 0.00 | 0.71 | 0.71 | 84 | 1015.0 |
| 20260905000604 | 81 | 0 | 0.0 | 0.0 | 0.00 | 0.71 | 0.71 | 84 | 1015.0 |
| 20260905000112 | 81 | 0 | 0.0 | 0.0 | 0.00 | 0.71 | 0.71 | 84 | 1015.0 |
| 20260904235558 | 81 | 0 | 0.0 | 0.0 | 0.00 | 0.71 | 0.71 | 84 | 1015.0 |
| 20260904235100 | 81 | 0 | 0.0 | 0.0 | 0.00 | 0.71 | 0.71 | 84 | 1015.0 |
| 20260904234608 | 81 | 0 | 0.0 | 0.0 | 0.00 | 0.71 | 0.71 | 84 | 1014.9 |
| 20260904234058 | 81 | 0 | 0.0 | 0.0 | 0.00 | 0.71 | 0.71 | 84 | 1014.9 |
| 20260904233557 | 81 | 0 | 0.0 | 0.0 | 0.00 | 0.71 | 0.71 | 84 | 1014.9 |
| 20260904233115 | 81 | 0 | 0.0 | 0.0 | 0.00 | 0.71 | 0.71 | 84 | 1014.9 |
| 20260904232557 | 82 | 0 | 0.0 | 0.0 | 0.00 | 0.71 | 0.71 | 84 | 1014.9 |
| 20260904232057 | 82 | 0 | 0.0 | 0.0 | 0.00 | 0.71 | 0.71 | 84 | 1014.9 |
| 20260904231610 | 82 | 0 | 0.0 | 0.0 | 0.00 | 0.71 | 0.71 | 83 | 1015.0 |
| 20260904231059 | 82 | 0 | 0.0 | 0.0 | 0.00 | 0.71 | 0.71 | 84 | 1015.0 |
| 20260904230558 | 82 | 0 | 0.0 | 0.0 | 0.00 | 0.71 | 0.71 | 83 | 1015.0 |
| 20260904230112 | 82 | 0 | 0.0 | 0.0 | 0.00 | 0.71 | 0.71 | 83 | 1015.0 |
| 20260904225558 | 82 | 0 | 0.0 | 0.0 | 0.00 | 0.71 | 0.71 | 83 | 1015.1 |
| 20260904225058 | 82 | 0 | 0.0 | 0.0 | 0.00 | 0.71 | 0.71 | 83 | 1015.2 |
| 20260904224622 | 82 | 0 | 0.0 | 0.0 | 0.00 | 0.71 | 0.71 | 83 | 1015.2 |
| 20260904224058 | 82 | 0 | 0.0 | 0.0 | 0.00 | 0.71 | 0.71 | 83 | 1015.2 |
| 20260904223557 | 82 | 0 | 0.0 | 0.0 | 0.00 | 0.71 | 0.71 | 83 | 1015.1 |
| 20260904223111 | 82 | 0 | 0.0 | 0.0 | 0.00 | 0.71 | 0.71 | 83 | 1015.1 |
| 20260904222558 | 82 | 0 | 0.0 | 0.0 | 0.00 | 0.71 | 0.71 | 83 | 1015.2 |
| 20260904222056 | 82 | 0 | 0.0 | 0.0 | 0.00 | 0.71 | 0.71 | 83 | 1015.3 |
| 20260904221628 | 82 | 0 | 0.0 | 0.0 | 0.00 | 0.71 | 0.71 | 83 | 1015.3 |
| 20260904221056 | 82 | 0 | 0.0 | 0.0 | 0.01 | 0.71 | 0.71 | 83 | 1015.4 |
| 20260904220557 | 82 | 0 | 0.0 | 0.0 | 0.01 | 0.71 | 0.71 | 83 | 1015.4 |
| 20260904220106 | 82 | 0 | 0.0 | 0.0 | 0.01 | 0.71 | 0.71 | 83 | 1015.5 |
| 20260904215559 | 82 | 0 | 0.0 | 0.0 | 0.01 | 0.71 | 0.71 | 83 | 1015.3 |
| 20260904215101 | 82 | 0 | 0.0 | 0.0 | 0.01 | 0.71 | 0.71 | 82 | 1015.4 |
| 20260904214611 | 82 | 0 | 0.0 | 0.0 | 0.01 | 0.71 | 0.71 | 82 | 1015.3 |
| 20260904214057 | 82 | 0 | 0.0 | 0.0 | 0.01 | 0.71 | 0.71 | 82 | 1015.3 |
| 20260904213558 | 82 | 0 | 0.0 | 0.0 | 0.02 | 0.71 | 0.71 | 82 | 1015.3 |
| 20260904213104 | 82 | 0 | 0.0 | 0.0 | 0.02 | 0.71 | 0.71 | 82 | 1015.4 |
| 20260904212557 | 82 | 0 | 0.0 | 0.0 | 0.02 | 0.71 | 0.71 | 81 | 1015.4 |
| 20260904212059 | 82 | 0 | 0.0 | 0.0 | 0.02 | 0.71 | 0.71 | 81 | 1015.3 |
| 20260904211604 | 82 | 0 | 0.0 | 0.0 | 0.02 | 0.71 | 0.71 | 81 | 1015.3 |
| 20260904211057 | 82 | 0 | 0.0 | 0.0 | 0.01 | 0.70 | 0.70 | 80 | 1015.4 |
| 20260904210558 | 82 | 0 | 0.0 | 0.0 | 0.01 | 0.70 | 0.70 | 80 | 1015.4 |
| 20260904210125 | 82 | 0 | 0.0 | 0.0 | 0.01 | 0.70 | 0.70 | 80 | 1015.4 |
| 20260904205601 | 82 | 0 | 0.0 | 0.0 | 0.01 | 0.70 | 0.70 | 79 | 1015.6 |
| 20260904205057 | 82 | 0 | 0.0 | 0.0 | 0.01 | 0.70 | 0.70 | 79 | 1015.6 |
| 20260904204602 | 82 | 0 | 0.0 | 0.0 | 0.01 | 0.70 | 0.70 | 79 | 1015.7 |
| 20260904204101 | 82 | 0 | 0.0 | 0.0 | 0.01 | 0.70 | 0.70 | 78 | 1015.7 |
| 20260904203603 | 82 | 0 | 0.0 | 0.0 | 0.00 | 0.69 | 0.69 | 78 | 1015.8 |
| 20260904203102 | 82 | 0 | 0.0 | 0.0 | 0.00 | 0.69 | 0.69 | 78 | 1015.9 |
| 20260904202600 | 82 | 0 | 0.0 | 0.0 | 0.00 | 0.69 | 0.69 | 77 | 1015.9 |
| 20260904202102 | 82 | 0 | 0.0 | 0.0 | 0.00 | 0.69 | 0.69 | 77 | 1015.9 |
| 20260904201630 | 82 | 0 | 0.0 | 0.0 | 0.00 | 0.69 | 0.69 | 77 | 1015.9 |
| 20260904201101 | 82 | 0 | 0.0 | 0.0 | 0.00 | 0.69 | 0.69 | 76 | 1015.9 |
| 20260904200600 | 82 | 0 | 0.0 | 0.0 | 0.00 | 0.69 | 0.69 | 76 | 1015.9 |
| 20260904200121 | 82 | 0 | 0.0 | 0.0 | 0.00 | 0.69 | 0.69 | 76 | 1016.0 |
| 20260904195602 | 82 | 0 | 0.0 | 0.0 | 0.00 | 0.69 | 0.69 | 76 | 1016.2 |
| 20260904195102 | 82 | 0 | 0.0 | 0.0 | 0.00 | 0.69 | 0.69 | 76 | 1016.2 |
| 20260904194605 | 82 | 0 | 0.0 | 2.0 | 0.00 | 0.69 | 0.69 | 76 | 1016.1 |
| 20260904194059 | 83 | 0 | 0.0 | 3.0 | 0.00 | 0.69 | 0.69 | 76 | 1016.2 |
| 20260904193601 | 83 | 0 | 0.0 | 4.0 | 0.00 | 0.69 | 0.69 | 75 | 1016.1 |
| 20260904193103 | 83 | 215 | 2.0 | 4.0 | 0.00 | 0.69 | 0.69 | 75 | 1016.3 |
| 20260904192559 | 84 | 0 | 0.0 | 6.0 | 0.00 | 0.69 | 0.69 | 75 | 1016.4 |
| 20260904192100 | 84 | 271 | 1.0 | 6.0 | 0.00 | 0.69 | 0.69 | 74 | 1016.3 |
| 20260904191602 | 84 | 277 | 2.0 | 6.0 | 0.00 | 0.69 | 0.69 | 73 | 1016.4 |
| 20260904191101 | 85 | 223 | 1.0 | 6.0 | 0.00 | 0.69 | 0.69 | 73 | 1016.3 |
| 20260904190559 | 85 | 0 | 0.0 | 3.0 | 0.00 | 0.69 | 0.69 | 73 | 1016.5 |
| 20260904190105 | 85 | 0 | 0.0 | 0.0 | 0.00 | 0.69 | 0.69 | 73 | 1016.5 |
| 20260904185558 | 85 | 0 | 0.0 | 0.0 | 0.00 | 0.69 | 0.69 | 73 | 1016.5 |
| 20260904185058 | 85 | 0 | 0.0 | 2.0 | 0.00 | 0.69 | 0.69 | 73 | 1016.5 |
| 20260904184607 | 86 | 0 | 0.0 | 9.0 | 0.00 | 0.69 | 0.69 | 72 | 1016.6 |
| 20260904184100 | 86 | 0 | 1.0 | 9.0 | 0.00 | 0.69 | 0.69 | 71 | 1016.8 |
| 20260904183558 | 87 | 267 | 3.0 | 9.0 | 0.00 | 0.69 | 0.69 | 71 | 1017.0 |
| 20260904183103 | 88 | 290 | 2.0 | 9.0 | 0.00 | 0.69 | 0.69 | 72 | 1016.8 |
| 20260904182601 | 89 | 0 | 0.0 | 5.0 | 0.00 | 0.69 | 0.69 | 73 | 1016.8 |
| 20260904182101 | 89 | 0 | 0.0 | 5.0 | 0.00 | 0.69 | 0.69 | 72 | 1016.7 |
| 20260904181606 | 89 | 57 | 1.0 | 8.0 | 0.00 | 0.69 | 0.69 | 72 | 1016.6 |
| 20260904181101 | 89 | 142 | 0.0 | 8.0 | 0.00 | 0.69 | 0.69 | 72 | 1016.5 |
| 20260904180603 | 89 | 0 | 2.0 | 8.0 | 0.00 | 0.69 | 0.69 | 71 | 1016.5 |
| 20260904180108 | 89 | 91 | 1.0 | 9.0 | 0.00 | 0.69 | 0.69 | 71 | 1016.5 |
| 20260904175603 | 90 | 90 | 2.0 | 9.0 | 0.00 | 0.69 | 0.69 | 71 | 1016.6 |
| 20260904175056 | 90 | 0 | 0.0 | 9.0 | 0.00 | 0.69 | 0.69 | 71 | 1016.7 |
| 20260904174603 | 89 | 83 | 3.0 | 9.0 | 0.00 | 0.69 | 0.69 | 71 | 1016.6 |
| 20260904174058 | 89 | 87 | 1.0 | 10.0 | 0.00 | 0.69 | 0.69 | 71 | 1016.5 |
| 20260904173557 | 89 | 183 | 3.0 | 10.0 | 0.00 | 0.69 | 0.69 | 72 | 1016.6 |
| 20260904173107 | 89 | 97 | 2.0 | 8.0 | 0.00 | 0.69 | 0.69 | 71 | 1016.8 |
| 20260904172558 | 89 | 82 | 2.0 | 8.0 | 0.00 | 0.69 | 0.69 | 71 | 1016.8 |
| 20260904172059 | 89 | 84 | 2.0 | 10.0 | 0.00 | 0.69 | 0.69 | 71 | 1016.8 |
| 20260904171623 | 89 | 85 | 3.0 | 10.0 | 0.00 | 0.69 | 0.69 | 70 | 1016.9 |
| 20260904171057 | 89 | 79 | 2.0 | 8.0 | 0.00 | 0.69 | 0.69 | 70 | 1017.0 |
| 20260904170556 | 89 | 42 | 0.0 | 7.0 | 0.00 | 0.69 | 0.69 | 71 | 1017.0 |
| 20260904170107 | 89 | 350 | 2.0 | 6.0 | 0.00 | 0.69 | 0.69 | 70 | 1017.1 |
| 20260904165557 | 90 | 103 | 2.0 | 4.0 | 0.00 | 0.69 | 0.69 | 70 | 1017.2 |
| 20260904165058 | 90 | 29 | 1.0 | 3.0 | 0.00 | 0.69 | 0.69 | 70 | 1017.1 |
| 20260904164602 | 90 | 0 | 0.0 | 6.0 | 0.00 | 0.69 | 0.69 | 71 | 1017.1 |
| 20260904164058 | 90 | 0 | 1.0 | 8.0 | 0.00 | 0.69 | 0.69 | 72 | 1017.0 |
| 20260904163557 | 90 | 326 | 1.0 | 8.0 | 0.00 | 0.69 | 0.69 | 72 | 1016.9 |
| 20260904163108 | 90 | 352 | 2.0 | 4.0 | 0.00 | 0.69 | 0.69 | 72 | 1017.1 |
| 20260904162558 | 89 | 0 | 0.0 | 3.0 | 0.00 | 0.69 | 0.69 | 75 | 1017.1 |
| 20260904162058 | 88 | 44 | 1.0 | 3.0 | 0.00 | 0.69 | 0.69 | 74 | 1017.1 |
| 20260904161612 | 88 | 0 | 0.0 | 0.0 | 0.00 | 0.69 | 0.69 | 75 | 1017.4 |
| 20260904161056 | 88 | 0 | 0.0 | 0.0 | 0.00 | 0.69 | 0.69 | 76 | 1017.5 |
| 20260904160557 | 88 | 0 | 0.0 | 0.0 | 0.00 | 0.69 | 0.69 | 76 | 1017.3 |
| 20260904160104 | 88 | 0 | 0.0 | 4.0 | 0.00 | 0.69 | 0.69 | 76 | 1017.3 |
| 20260904155600 | 88 | 0 | 0.0 | 7.0 | 0.00 | 0.69 | 0.69 | 77 | 1017.4 |
| 20260904155058 | 88 | 0 | 1.0 | 7.0 | 0.00 | 0.69 | 0.69 | 77 | 1017.6 |
| 20260904154602 | 88 | 279 | 1.0 | 5.0 | 0.00 | 0.69 | 0.69 | 77 | 1017.6 |
| 20260904154056 | 88 | 0 | 0.0 | 4.0 | 0.00 | 0.69 | 0.69 | 79 | 1017.4 |
| 20260904153557 | 87 | 0 | 0.0 | 4.0 | 0.00 | 0.69 | 0.69 | 80 | 1017.4 |
| 20260904153118 | 87 | 0 | 1.0 | 4.0 | 0.00 | 0.69 | 0.69 | 82 | 1017.1 |
| 20260904152557 | 86 | 245 | 0.0 | 3.0 | 0.00 | 0.69 | 0.69 | 84 | 1017.1 |
| 20260904152058 | 85 | 0 | 0.0 | 4.0 | 0.00 | 0.69 | 0.69 | 85 | 1017.2 |
| 20260904151602 | 84 | 149 | 0.0 | 4.0 | 0.00 | 0.69 | 0.69 | 85 | 1017.2 |
| 20260904151057 | 84 | 0 | 0.0 | 2.0 | 0.00 | 0.69 | 0.69 | 86 | 1017.3 |
| 20260904150558 | 83 | 0 | 0.0 | 0.0 | 0.00 | 0.69 | 0.69 | 86 | 1017.4 |
| 20260904150111 | 84 | 0 | 0.0 | 0.0 | 0.00 | 0.69 | 0.69 | 87 | 1017.3 |
| 20260904145559 | 83 | 0 | 0.0 | 0.0 | 0.00 | 0.69 | 0.69 | 87 | 1017.2 |
| 20260904145059 | 83 | 0 | 0.0 | 0.0 | 0.00 | 0.69 | 0.69 | 87 | 1017.2 |
| 20260904144613 | 83 | 0 | 0.0 | 0.0 | 0.00 | 0.69 | 0.69 | 87 | 1017.0 |
| 20260904144058 | 83 | 0 | 0.0 | 0.0 | 0.00 | 0.69 | 0.69 | 87 | 1017.1 |
| 20260904143601 | 83 | 0 | 0.0 | 0.0 | 0.00 | 0.69 | 0.69 | 87 | 1017.1 |
| 20260904143123 | 83 | 0 | 0.0 | 0.0 | 0.00 | 0.69 | 0.69 | 86 | 1017.1 |
| 20260904142600 | 83 | 0 | 0.0 | 0.0 | 0.05 | 0.69 | 0.69 | 87 | 1017.1 |
| 20260904142100 | 83 | 0 | 0.0 | 0.0 | 0.19 | 0.69 | 0.69 | 86 | 1017.1 |
| 20260904141602 | 83 | 0 | 0.0 | 2.0 | 0.44 | 0.69 | 0.69 | 86 | 1017.2 |
| 20260904141100 | 83 | 0 | 0.0 | 2.0 | 0.58 | 0.69 | 0.69 | 86 | 1017.2 |
| 20260904140558 | 83 | 262 | 0.0 | 3.0 | 0.66 | 0.69 | 0.69 | 86 | 1017.1 |
| 20260904140109 | 83 | 273 | 0.0 | 3.0 | 0.69 | 0.69 | 0.69 | 86 | 1017.1 |
| 20260904135601 | 82 | 240 | 0.0 | 0.0 | 0.69 | 0.69 | 0.69 | 86 | 1017.1 |
| 20260904135104 | 82 | 0 | 0.0 | 0.0 | 0.69 | 0.69 | 0.69 | 86 | 1017.1 |
| 20260904134603 | 81 | 0 | 0.0 | 2.0 | 0.69 | 0.69 | 0.69 | 86 | 1017.0 |
| 20260904134100 | 81 | 0 | 0.0 | 2.0 | 0.69 | 0.69 | 0.69 | 85 | 1017.0 |